Regional Weather Roundup
Issued by NWS Newport/Morehead, NC

Current Version | Previous Version | Graphics & Text | Print | Product List | Glossary Off
Versions: 1 2 3 4 5 6 7 8 9 10 11 12 13 14 15 16 17 18 19 20 21 22 23 24 25 26 27 28 29 30 31 32 33 34 35 36 37 38 39 40 41 42 43 44 45 46 47 48 49 50

000
ASUS42 KMHX 280510
RWRMHX
WEATHER ROUNDUP FOR EASTERN NORTH CAROLINA
NATIONAL WEATHER SERVICE NEWPORT/MOREHEAD CITY NC
100 AM EDT THU AUG 28 2014

NOTE: "FAIR" INDICATES FEW OR NO CLOUDS BELOW 12,000 FEET
WITH NO SIGNIFICANT WEATHER AND/OR OBSTRUCTIONS TO VISIBILITY

NCZ015>017-031-032-045>047-102-103-280600-
NORTH COAST

CITY           SKY/WX    TMP DP  RH WIND       PRES   REMARKS
EDENTON        CLEAR     67  66  94 CALM      29.94R
ELIZABETH CITY CLEAR     66  63  90 W6        29.93S
KITTY HAWK     CLEAR     71  69  93 CALM      29.91S
MANTEO         CLEAR     71  67  89 NW3       29.92S

$$

NCZ045>047-081-094-103-104-280600-
CENTRAL COAST

CITY           SKY/WX    TMP DP  RH WIND       PRES   REMARKS
FRISCO         NOT AVBL
SWANQUARTER      N/A     70 N/A N/A NW1       29.91S

$$

NCZ095-097-098-100-101-280600-
SOUTHERN COAST

CITY           SKY/WX    TMP DP  RH WIND       PRES   REMARKS
BEAUFORT       CLEAR     74  69  85 NW7       29.95S
CEDAR ISLAND     N/A     75 N/A N/A NW5       29.97S
JACKSONVILLE   CLEAR     69  63  81 SW3       29.96F
NEWPORT        NOT AVBL
PINEY ISLAND   CLEAR     76  73  91 SW5       29.94F
WILMINGTON     CLEAR     67  64  90 CALM      29.97F


$$

NCZ011>013-027>030-043-044-078>080-089-090>093-098-280600-
COASTAL PLAIN

CITY           SKY/WX    TMP DP  RH WIND       PRES   REMARKS
AHOSKIE        CLEAR     62  60  94 CALM      29.95F
CLINTON        CLEAR     64  64  99 CALM      29.98S
ELIZABETHTOWN  CLEAR     65  59  81 CALM      29.98F
GOLDSBORO      CLEAR     68  67  97 CALM      29.95F
GREENVILLE     CLEAR     64  63  94 CALM      29.98S
HAVELOCK       CLEAR     69  66  90 SW5       29.96F
KENANSVILLE    CLEAR     61  61 100 CALM      29.98S
KINSTON        CLEAR     64  62  92 CALM      29.97S
NEW BERN       CLEAR     70  66  87 CALM      29.96S
RICHLANDS      CLEAR     63  57  82 CALM      29.97F
ROANOKE RAPIDS NOT AVBL
ROCKY MOUNT    CLEAR     65  63  93 S3        29.96S
WASHINGTON     CLEAR     66  65  94 CALM      29.95F
WHITEVILLE     CLEAR     65  61  86 CALM      29.98S

$$

AMZ130-135-150-152-154-156-158-170-250-252-270-ANZ085-086-088-633-658-670-280600-
MARINE OBSERVATIONS

STATION/POSITION TIME  TEMP    WIND        PRES    WAVE   SWELL
                       AIR SEA DIR/SP/G            HT/PER HT/PER
                 (UTC) (F)     (DEG/KT/KT) (MB)    (FT/S) (FT/S)
CHESAPEAKE LIGHT 0400   74     290/  7/  7 1013.7
BUOY 44014       0500   74 75  330/ 10/ 14 1011.8    8/12   8/12
DUCK             0500   74 77  300/  6/  7 1012.4
2E DUCK          0500                        N/A     5/13   3/13
OREGON INLET     0500   72 79  330/  4/  6 1013.0
BUOY 44095       0500      76                N/A     7/13   5/13
20E OREGON INLET NOT AVBL
HATTERAS CG      0500          320/ 10/ 11   N/A
DIAMOND BUOY     0500   76     320/ 14/ 16 1012.9    7/11   7/11
CAPE LOOKOUT     0400   77     320/  6/  7 1014.2
BEAUFORT LAB     0500          330/  3/  5   N/A
30 SE NEW RIVER  0500   80 80  330/ 12/ 14 1014.7    5/ 8   5/ 8
5 SE WRIGHTSVILL 0500   75 81  320/  6/  8   N/A
BUOY 41002       0356   80 81  320/ 14/ 16 1014.3    9/ 8   8/ 8
BUOY 41004       0500   81 82  260/  8/ 10 1015.6    6/10   7/10

$$


USA.gov is the U.S. government's official web portal to all federal, state and local government web resources and services.